This demonstration page uses our WeatherBlox Daily Observations layout. Learn more.

39.92423, -83.80882

Hourly Observations for July 4, 2016

Temp ( °F °C ) Dew Point ( °F °C ) Humidity (%) Winds ( mph kmh ) Pressure ( in mb ) Visibility ( mi km ) Precip ( " mm )
12:56 am 00:56 Mostly Clear 62 16.6 61 16.1 97 97 SE 8 13 30.02 1017 10 16.0934 0 0
1:56 am 01:56 Cloudy 62 16.6 61 16.1 97 97 ESE 8 13 30.02 1017 10 16.0934 0 0
2:56 am 02:56 Cloudy 62 16.6 61 16.1 97 97 ESE 7 11 30.01 1016 10 16.0934 0 0
3:06 am 03:06 Cloudy 63 17 61 16 94 94 ESE 8 13 30 1016 10 16.0934 0 0
3:56 am 03:56 Cloudy 62 16.6 62 16.6 100 100 E 10 17 29.98 1015 10 16.0934 0 0
4:47 am 04:47 Mostly Cloudy 63 17 63 17 100 100 ESE 12 19 29.97 1015 10 16.0934 0 0
4:56 am 04:56 Mostly Cloudy 62 16.6 62 16.6 100 100 E 10 17 29.96 1015 10 16.0934 0 0
5:46 am 05:46 Mostly Cloudy 63 17 63 17 100 100 E 8 13 29.97 1015 10 16.0934 0 0
5:56 am 05:56 Cloudy 62 16.6 62 16.6 100 100 E 8 13 29.96 1015 10 16.0934 0 0
6:56 am 06:56 Cloudy 62 16.6 62 16.6 100 100 E 8 13 29.96 1014 8 12.87472 0 0
7:56 am 07:56 Cloudy 64 17.7 63 17.2 97 97 E 10 17 29.95 1014 10 16.0934 0 0
8:07 am 08:07 Cloudy 64 18 63 17 94 94 E 9 15 29.94 1014 10 16.0934 0 0
8:36 am 08:36 Cloudy 64 18 63 17 94 94 E 12 19 29.94 1014 10 16.0934 0 0
8:56 am 08:56 Cloudy 65 18.3 64 17.7 96 96 E 10 17 29.95 1014 10 16.0934 0 0
9:06 am 09:06 Cloudy 64 18 64 18 100 100 E 9 15 29.94 1014 10 16.0934 0 0
9:56 am 09:56 Cloudy 67 19.4 64 17.7 90 90 ESE 9 15 29.94 1014 10 16.0934 0 0
10:29 am 10:29 Cloudy with Light Rain 66 19 64 18 94 94 ESE 6 9 29.94 1014 1.75 2.816345 0 0.0254
10:56 am 10:56 Cloudy with Light Rain 65 18.3 65 18.3 100 100 ESE 7 11 29.95 1014 2 3.21868 0.02 0.508
11:14 am 11:14 Cloudy with Mist and Fog 64 18 64 18 100 100 ESE 6 9 29.94 1014 4 6.43736 0 0.0254
11:18 am 11:18 Cloudy with Mist and Fog 64 18 64 18 100 100 ESE 7 11 29.94 1014 1.5 2.41401 0 0.0254
11:21 am 11:21 Cloudy with Mist and Fog 66 19 66 19 100 100 ESE 7 11 29.94 1014 1 1.60934 0 0.0254
11:29 am 11:29 Cloudy with Mist and Fog 66 19 66 19 100 100 ESE 6 9 29.94 1014 0.75 1.207005 0.01 0.254
11:37 am 11:37 Cloudy with Mist and Fog 66 19 66 19 100 100 ESE 7 11 29.94 1014 1.25 2.011675 0.01 0.254
11:56 am 11:56 Cloudy with Mist and Fog 66 18.8 66 18.8 100 100 ESE 8 13 29.95 1014 2 3.21868 0.02 0.508
12:11 pm 12:11 Cloudy with Mist and Fog 66 19 66 19 100 100 ESE 7 11 29.94 1014 2.5 4.02335 0 0
12:21 pm 12:21 Cloudy with Mist and Fog 66 19 66 19 100 100 ESE 7 11 29.94 1014 4 6.43736 0 0
12:56 pm 12:56 Cloudy 68 20 68 20 100 100 ESE 6 9 29.93 1013 10 16.0934 0 0
1:56 pm 13:56 Cloudy 69 20.5 68 20 97 97 SE 5 7 29.9 1013 10 16.0934 0 0
2:56 pm 14:56 Cloudy 72 22.2 70 21.1 94 94 ESE 7 11 29.89 1012 10 16.0934 0 0
3:56 pm 15:56 Cloudy 72 22.2 71 21.6 96 96 S 5 7 29.91 1013 10 16.0934 0 0
4:56 pm 16:56 Cloudy 73 22.7 72 22.2 97 97 SW 6 9 29.91 1013 10 16.0934 0 0
5:56 pm 17:56 Mostly Cloudy 74 23.3 73 22.7 96 96 SSW 6 9 29.87 1012 10 16.0934 0 0.0254
6:10 pm 18:10 Partly Cloudy 73 23 73 23 100 100 SSW 5 7 29.85 1011 10 16.0934 0 0
6:56 pm 18:56 Mostly Cloudy 74 23.3 74 23.3 100 100 SW 7 11 29.86 1011 10 16.0934 0 0
7:56 pm 19:56 Mostly Cloudy 73 22.7 73 22.7 100 100 SSW 8 13 29.86 1011 10 16.0934 0 0
8:24 pm 20:24 Cloudy with Mist and Fog 73 23 73 23 100 100 SSW 9 15 29.85 1011 5 8.0467 0 0
8:39 pm 20:39 Cloudy with Mist and Fog 73 23 73 23 100 100 SSW 7 11 29.85 1011 2.5 4.02335 0 0
8:46 pm 20:46 Cloudy with Mist and Fog 73 23 73 23 100 100 SSW 6 9 29.85 1011 3 4.82802 0 0
8:56 pm 20:56 Cloudy 72 22.2 72 22.2 100 100 SSW 8 13 29.86 1011 10 16.0934 0 0
9:39 pm 21:39 Mostly Cloudy 72 22 72 22 100 100 SW 5 7 29.85 1011 10 16.0934 0 0
9:56 pm 21:56 Cloudy 71 21.6 71 21.6 100 100 SW 3 6 29.87 1012 10 16.0934 0 0
10:08 pm 22:08 Cloudy 72 22 72 22 100 100 Calm 29.85 1011 10 16.0934 0 0
10:56 pm 22:56 Cloudy with Mist and Fog 71 21.6 71 21.6 100 100 SSW 6 9 29.88 1012 5 8.0467 0 0
11:56 pm 23:56 Cloudy with Mist and Fog 72 22.2 72 22.2 100 100 SW 8 13 29.88 1012 4 6.43736 0 0

Powered by AerisWeather